| time (UTC) | temp C | wind direction | speed KPH | gust KPH | rain 1hr cm | rain 24hr cm | rain mn cm | humidity % | barometer mb |
| 20260508182538 | 20 | 278 | 3.2 | 9.7 | 0.00 | 0.03 | 0.03 | 50 | 1014.3 |
| 20260508182040 | 20 | 263 | 4.8 | 8.0 | 0.00 | 0.03 | 0.03 | 50 | 1014.3 |
| 20260508181556 | 20 | 294 | 1.6 | 8.0 | 0.00 | 0.03 | 0.03 | 49 | 1014.3 |
| 20260508181039 | 20 | 0 | 3.2 | 9.7 | 0.00 | 0.03 | 0.03 | 49 | 1014.3 |
| 20260508180539 | 19 | 316 | 1.6 | 9.7 | 0.00 | 0.03 | 0.03 | 50 | 1014.3 |
| 20260508180050 | 19 | 36 | 3.2 | 8.0 | 0.00 | 0.03 | 0.03 | 51 | 1014.3 |
| 20260508175539 | 19 | 0 | 3.2 | 6.4 | 0.00 | 0.03 | 0.03 | 49 | 1014.5 |
| 20260508175039 | 19 | 333 | 1.6 | 6.4 | 0.00 | 0.03 | 0.03 | 49 | 1014.6 |
| 20260508174607 | 19 | 271 | 1.6 | 6.4 | 0.00 | 0.03 | 0.03 | 49 | 1014.8 |
| 20260508174042 | 19 | 40 | 1.6 | 8.0 | 0.00 | 0.03 | 0.03 | 49 | 1014.7 |
| 20260508173542 | 19 | 217 | 3.2 | 8.0 | 0.00 | 0.03 | 0.03 | 52 | 1014.8 |
| 20260508173052 | 19 | 137 | 3.2 | 6.4 | 0.00 | 0.03 | 0.03 | 52 | 1015.0 |
| 20260508172538 | 18 | 0 | 1.6 | 11.3 | 0.00 | 0.03 | 0.03 | 54 | 1014.7 |
| 20260508172038 | 18 | 288 | 1.6 | 11.3 | 0.00 | 0.03 | 0.03 | 53 | 1015.0 |
| 20260508171548 | 18 | 266 | 4.8 | 11.3 | 0.00 | 0.03 | 0.03 | 54 | 1015.0 |
| 20260508171042 | 18 | 215 | 1.6 | 11.3 | 0.00 | 0.03 | 0.03 | 54 | 1014.9 |
| 20260508170539 | 18 | 246 | 4.8 | 12.9 | 0.00 | 0.03 | 0.03 | 53 | 1014.9 |
| 20260508170049 | 18 | 266 | 6.4 | 12.9 | 0.00 | 0.03 | 0.03 | 52 | 1015.0 |
| 20260508165538 | 18 | 311 | 0.0 | 6.4 | 0.00 | 0.03 | 0.03 | 52 | 1015.2 |
| 20260508165042 | 18 | 0 | 1.6 | 8.0 | 0.00 | 0.03 | 0.03 | 53 | 1015.3 |
| 20260508164545 | 18 | 253 | 3.2 | 8.0 | 0.00 | 0.03 | 0.03 | 53 | 1015.4 |
| 20260508164039 | 18 | 215 | 3.2 | 8.0 | 0.00 | 0.03 | 0.03 | 53 | 1015.5 |
| 20260508163538 | 17 | 327 | 1.6 | 11.3 | 0.00 | 0.03 | 0.03 | 53 | 1015.7 |
| 20260508163051 | 17 | 0 | 1.6 | 11.3 | 0.00 | 0.03 | 0.03 | 54 | 1015.8 |
| 20260508162539 | 17 | 304 | 3.2 | 11.3 | 0.00 | 0.03 | 0.03 | 53 | 1015.7 |
| 20260508162040 | 17 | 268 | 3.2 | 6.4 | 0.00 | 0.03 | 0.03 | 54 | 1015.8 |
| 20260508161544 | 17 | 269 | 1.6 | 6.4 | 0.00 | 0.03 | 0.03 | 53 | 1015.9 |
| 20260508161038 | 17 | 0 | 0.0 | 11.3 | 0.00 | 0.03 | 0.03 | 53 | 1015.9 |
| 20260508160539 | 17 | 270 | 4.8 | 11.3 | 0.00 | 0.03 | 0.03 | 52 | 1016.0 |
| 20260508160052 | 16 | 267 | 3.2 | 9.7 | 0.00 | 0.03 | 0.03 | 55 | 1016.0 |
| 20260508155542 | 16 | 297 | 3.2 | 11.3 | 0.00 | 0.03 | 0.03 | 53 | 1016.0 |
| 20260508155039 | 16 | 265 | 4.8 | 11.3 | 0.00 | 0.03 | 0.03 | 54 | 1016.1 |
| 20260508154551 | 16 | 255 | 6.4 | 11.3 | 0.00 | 0.03 | 0.03 | 55 | 1016.1 |
| 20260508154039 | 16 | 290 | 0.0 | 8.0 | 0.00 | 0.03 | 0.03 | 63 | 1016.1 |
| 20260508153539 | 16 | 295 | 3.2 | 8.0 | 0.00 | 0.03 | 0.03 | 64 | 1016.0 |
| 20260508153053 | 15 | 281 | 1.6 | 4.8 | 0.00 | 0.03 | 0.03 | 66 | 1016.1 |
| 20260508152539 | 15 | 343 | 1.6 | 4.8 | 0.00 | 0.03 | 0.03 | 68 | 1016.2 |
| 20260508152039 | 15 | 318 | 0.0 | 4.8 | 0.00 | 0.03 | 0.03 | 68 | 1016.2 |
| 20260508151554 | 15 | 327 | 1.6 | 4.8 | 0.00 | 0.03 | 0.03 | 70 | 1016.4 |
| 20260508151039 | 15 | 0 | 1.6 | 4.8 | 0.00 | 0.03 | 0.03 | 69 | 1016.3 |
| 20260508150540 | 15 | 275 | 1.6 | 4.8 | 0.00 | 0.03 | 0.03 | 71 | 1016.4 |
| 20260508150049 | 14 | 265 | 1.6 | 4.8 | 0.00 | 0.03 | 0.03 | 73 | 1016.5 |
| 20260508145537 | 14 | 350 | 0.0 | 4.8 | 0.00 | 0.03 | 0.03 | 72 | 1016.4 |
| 20260508145038 | 14 | 317 | 1.6 | 4.8 | 0.00 | 0.03 | 0.03 | 75 | 1016.3 |
| 20260508144551 | 13 | 14 | 3.2 | 4.8 | 0.00 | 0.03 | 0.03 | 74 | 1016.4 |
| 20260508144038 | 13 | 24 | 1.6 | 4.8 | 0.00 | 0.03 | 0.03 | 76 | 1016.5 |
| 20260508143539 | 13 | 34 | 1.6 | 4.8 | 0.00 | 0.03 | 0.03 | 77 | 1016.5 |
| 20260508143056 | 13 | 30 | 1.6 | 4.8 | 0.00 | 0.03 | 0.03 | 78 | 1016.6 |
| 20260508142539 | 13 | 360 | 0.0 | 3.2 | 0.00 | 0.03 | 0.03 | 80 | 1016.5 |
| 20260508142039 | 13 | 0 | 0.0 | 3.2 | 0.00 | 0.03 | 0.03 | 81 | 1016.6 |
| 20260508141612 | 13 | 0 | 0.0 | 4.8 | 0.00 | 0.03 | 0.03 | 81 | 1016.6 |
| 20260508141039 | 13 | 0 | 0.0 | 4.8 | 0.00 | 0.03 | 0.03 | 81 | 1016.6 |
| 20260508140538 | 13 | 0 | 1.6 | 4.8 | 0.00 | 0.03 | 0.03 | 81 | 1016.6 |
| 20260508140048 | 13 | 360 | 0.0 | 4.8 | 0.00 | 0.03 | 0.03 | 83 | 1016.6 |
| 20260508135539 | 12 | 166 | 1.6 | 4.8 | 0.00 | 0.03 | 0.03 | 84 | 1016.6 |
| 20260508135040 | 12 | 0 | 1.6 | 4.8 | 0.00 | 0.03 | 0.03 | 84 | 1016.6 |
| 20260508134555 | 12 | 338 | 0.0 | 4.8 | 0.00 | 0.03 | 0.03 | 85 | 1016.6 |
| 20260508134038 | 12 | 32 | 1.6 | 4.8 | 0.00 | 0.03 | 0.03 | 85 | 1016.6 |
| 20260508133538 | 12 | 113 | 1.6 | 4.8 | 0.00 | 0.03 | 0.03 | 87 | 1016.6 |
| 20260508133043 | 11 | 51 | 0.0 | 4.8 | 0.00 | 0.03 | 0.03 | 87 | 1016.7 |
| 20260508132538 | 11 | 51 | 1.6 | 4.8 | 0.00 | 0.03 | 0.03 | 87 | 1016.8 |
| 20260508132038 | 11 | 0 | 3.2 | 4.8 | 0.00 | 0.03 | 0.03 | 88 | 1016.9 |
| 20260508131548 | 11 | 117 | 1.6 | 4.8 | 0.00 | 0.03 | 0.03 | 87 | 1017.0 |
| 20260508131039 | 11 | 97 | 0.0 | 4.8 | 0.00 | 0.03 | 0.03 | 87 | 1017.0 |
| 20260508130540 | 10 | 24 | 0.0 | 4.8 | 0.00 | 0.03 | 0.03 | 87 | 1017.0 |
| 20260508130047 | 10 | 251 | 1.6 | 6.4 | 0.03 | 0.03 | 0.03 | 87 | 1017.0 |
| 20260508125539 | 10 | 232 | 1.6 | 6.4 | 0.03 | 0.13 | 0.03 | 87 | 1017.1 |
| 20260508125039 | 11 | 246 | 0.0 | 3.2 | 0.03 | 0.13 | 0.03 | 87 | 1017.1 |
| 20260508124556 | 10 | 63 | 0.0 | 3.2 | 0.03 | 0.13 | 0.03 | 86 | 1017.0 |
| 20260508124041 | 10 | 0 | 0.0 | 3.2 | 0.03 | 0.13 | 0.03 | 87 | 1017.1 |
| 20260508123538 | 10 | 61 | 0.0 | 3.2 | 0.03 | 0.13 | 0.03 | 87 | 1017.0 |
| 20260508123052 | 10 | 355 | 0.0 | 3.2 | 0.03 | 0.13 | 0.03 | 87 | 1016.9 |
| 20260508122538 | 9 | 0 | 0.0 | 3.2 | 0.03 | 0.13 | 0.03 | 87 | 1016.7 |
| 20260508122038 | 9 | 0 | 0.0 | 3.2 | 0.03 | 0.13 | 0.03 | 87 | 1016.7 |
| 20260508121545 | 9 | 0 | 0.0 | 4.8 | 0.03 | 0.13 | 0.03 | 87 | 1016.7 |
| 20260508121039 | 9 | 256 | 0.0 | 4.8 | 0.03 | 0.13 | 0.03 | 87 | 1016.6 |
| 20260508120538 | 8 | 28 | 1.6 | 4.8 | 0.03 | 0.13 | 0.03 | 87 | 1016.5 |
| 20260508120046 | 8 | 23 | 1.6 | 6.4 | 0.00 | 0.10 | 0.00 | 87 | 1016.5 |
| 20260508115538 | 8 | 28 | 3.2 | 6.4 | 0.00 | 0.33 | 0.00 | 87 | 1016.4 |
| 20260508115038 | 8 | 32 | 3.2 | 4.8 | 0.00 | 0.33 | 0.00 | 87 | 1016.3 |
| 20260508114545 | 8 | 0 | 1.6 | 4.8 | 0.00 | 0.33 | 0.00 | 87 | 1016.3 |
| 20260508114039 | 8 | 51 | 1.6 | 4.8 | 0.00 | 0.33 | 0.00 | 88 | 1016.1 |
| 20260508113539 | 7 | 51 | 0.0 | 3.2 | 0.00 | 0.33 | 0.00 | 88 | 1016.1 |
| 20260508113106 | 7 | 0 | 0.0 | 3.2 | 0.00 | 0.33 | 0.00 | 88 | 1016.0 |
| 20260508112538 | 7 | 51 | 0.0 | 3.2 | 0.00 | 0.33 | 0.00 | 88 | 1016.0 |
| 20260508112039 | 7 | 51 | 0.0 | 3.2 | 0.00 | 0.33 | 0.00 | 88 | 1015.8 |
| 20260508111546 | 7 | 48 | 0.0 | 3.2 | 0.00 | 0.33 | 0.00 | 88 | 1015.9 |
| 20260508111038 | 7 | 51 | 0.0 | 3.2 | 0.00 | 0.33 | 0.00 | 88 | 1015.9 |
| 20260508110538 | 7 | 51 | 0.0 | 3.2 | 0.00 | 0.33 | 0.00 | 88 | 1015.7 |
| 20260508110052 | 7 | 51 | 0.0 | 3.2 | 0.00 | 0.33 | 0.00 | 88 | 1015.7 |
| 20260508105538 | 7 | 44 | 0.0 | 4.8 | 0.00 | 0.66 | 0.00 | 88 | 1015.6 |
| 20260508105038 | 7 | 58 | 1.6 | 4.8 | 0.00 | 0.66 | 0.00 | 88 | 1015.5 |
| 20260508104552 | 7 | 46 | 1.6 | 4.8 | 0.00 | 0.66 | 0.00 | 88 | 1015.4 |
| 20260508104039 | 7 | 0 | 0.0 | 3.2 | 0.00 | 0.66 | 0.00 | 88 | 1015.3 |
| 20260508103539 | 7 | 46 | 0.0 | 1.6 | 0.00 | 0.66 | 0.00 | 88 | 1015.1 |
| 20260508103048 | 7 | 0 | 0.0 | 3.2 | 0.00 | 0.66 | 0.00 | 88 | 1014.9 |
| 20260508102538 | 7 | 46 | 0.0 | 6.4 | 0.00 | 0.66 | 0.00 | 88 | 1014.9 |
| 20260508102043 | 7 | 46 | 1.6 | 6.4 | 0.00 | 0.66 | 0.00 | 88 | 1014.9 |
| 20260508101544 | 7 | 5 | 1.6 | 8.0 | 0.00 | 0.66 | 0.00 | 88 | 1014.9 |
| 20260508101039 | 7 | 69 | 3.2 | 8.0 | 0.00 | 0.66 | 0.00 | 88 | 1014.8 |
| 20260508100538 | 7 | 0 | 0.0 | 3.2 | 0.00 | 0.66 | 0.00 | 88 | 1014.9 |
| 20260508100049 | 7 | 0 | 0.0 | 3.2 | 0.00 | 0.66 | 0.00 | 88 | 1014.8 |
| 20260508095538 | 7 | 64 | 1.6 | 4.8 | 0.00 | 0.79 | 0.00 | 88 | 1014.8 |
| 20260508095039 | 7 | 43 | 1.6 | 4.8 | 0.00 | 0.79 | 0.00 | 88 | 1014.8 |
| 20260508094544 | 7 | 19 | 0.0 | 6.4 | 0.00 | 0.79 | 0.00 | 88 | 1014.8 |
| 20260508094038 | 7 | 38 | 1.6 | 6.4 | 0.00 | 0.79 | 0.00 | 88 | 1014.9 |
| 20260508093538 | 7 | 22 | 3.2 | 6.4 | 0.00 | 0.79 | 0.00 | 88 | 1014.8 |
| 20260508093053 | 7 | 61 | 0.0 | 3.2 | 0.00 | 0.79 | 0.00 | 88 | 1014.7 |
| 20260508092542 | 7 | 70 | 0.0 | 3.2 | 0.00 | 0.79 | 0.00 | 88 | 1014.7 |
| 20260508092039 | 8 | 0 | 0.0 | 3.2 | 0.00 | 0.79 | 0.00 | 88 | 1014.6 |
| 20260508091551 | 8 | 70 | 0.0 | 3.2 | 0.00 | 0.79 | 0.00 | 88 | 1014.6 |
| 20260508091042 | 8 | 70 | 1.6 | 4.8 | 0.00 | 0.79 | 0.00 | 92 | 1014.5 |
| 20260508090539 | 8 | 24 | 1.6 | 4.8 | 0.00 | 0.79 | 0.00 | 88 | 1014.6 |
| 20260508090051 | 8 | 0 | 0.0 | 3.2 | 0.00 | 0.79 | 0.00 | 88 | 1014.5 |
| 20260508085538 | 8 | 0 | 0.0 | 3.2 | 0.00 | 0.81 | 0.00 | 88 | 1014.4 |
| 20260508085041 | 8 | 57 | 0.0 | 3.2 | 0.00 | 0.81 | 0.00 | 88 | 1014.5 |
| 20260508084548 | 8 | 57 | 1.6 | 4.8 | 0.00 | 0.81 | 0.00 | 88 | 1014.4 |
| 20260508084039 | 8 | 57 | 0.0 | 6.4 | 0.00 | 0.81 | 0.00 | 88 | 1014.5 |
| 20260508083539 | 8 | 0 | 1.6 | 6.4 | 0.00 | 0.81 | 0.00 | 88 | 1014.4 |
| 20260508083104 | 8 | 43 | 3.2 | 4.8 | 0.00 | 0.81 | 0.00 | 88 | 1014.4 |
| 20260508082538 | 8 | 39 | 1.6 | 4.8 | 0.00 | 0.81 | 0.00 | 88 | 1014.5 |
| 20260508082038 | 8 | 60 | 0.0 | 3.2 | 0.00 | 0.81 | 0.00 | 88 | 1014.4 |
| 20260508081551 | 8 | 60 | 0.0 | 3.2 | 0.00 | 0.81 | 0.00 | 88 | 1014.4 |
| 20260508081038 | 8 | 60 | 1.6 | 4.8 | 0.00 | 0.81 | 0.00 | 87 | 1014.3 |
| 20260508080541 | 8 | 55 | 1.6 | 4.8 | 0.00 | 0.81 | 0.00 | 87 | 1014.5 |
| 20260508080049 | 8 | 42 | 1.6 | 3.2 | 0.00 | 0.81 | 0.00 | 87 | 1014.6 |
| 20260508075538 | 8 | 71 | 0.0 | 3.2 | 0.00 | 0.84 | 0.00 | 87 | 1014.5 |
| 20260508075038 | 8 | 0 | 0.0 | 3.2 | 0.00 | 0.84 | 0.00 | 87 | 1014.5 |
| 20260508074552 | 8 | 0 | 0.0 | 3.2 | 0.00 | 0.84 | 0.00 | 87 | 1014.5 |
| 20260508074041 | 8 | 71 | 0.0 | 3.2 | 0.00 | 0.84 | 0.00 | 87 | 1014.5 |
| 20260508073539 | 8 | 72 | 0.0 | 3.2 | 0.00 | 0.84 | 0.00 | 87 | 1014.4 |
| 20260508073047 | 8 | 120 | 0.0 | 3.2 | 0.00 | 0.84 | 0.00 | 87 | 1014.6 |
| 20260508072538 | 8 | 120 | 1.6 | 4.8 | 0.00 | 0.84 | 0.00 | 88 | 1014.6 |
| 20260508072038 | 8 | 120 | 1.6 | 4.8 | 0.00 | 0.84 | 0.00 | 88 | 1014.6 |
| 20260508071551 | 9 | 120 | 1.6 | 4.8 | 0.00 | 0.84 | 0.00 | 88 | 1014.6 |
| 20260508071038 | 9 | 0 | 0.0 | 3.2 | 0.00 | 0.84 | 0.00 | 87 | 1014.6 |
| 20260508070541 | 9 | 0 | 0.0 | 3.2 | 0.00 | 0.84 | 0.00 | 88 | 1014.4 |
| 20260508070054 | 9 | 43 | 0.0 | 4.8 | 0.00 | 0.84 | 0.00 | 87 | 1014.6 |
| 20260508065538 | 9 | 0 | 0.0 | 4.8 | 0.00 | 0.99 | 0.00 | 87 | 1014.6 |
| 20260508065038 | 9 | 63 | 0.0 | 3.2 | 0.00 | 0.99 | 0.00 | 87 | 1014.6 |
| 20260508064544 | 9 | 78 | 1.6 | 3.2 | 0.00 | 0.99 | 0.00 | 87 | 1014.6 |
| 20260508064040 | 10 | 71 | 0.0 | 3.2 | 0.00 | 0.99 | 0.00 | 87 | 1014.8 |
| 20260508063539 | 10 | 71 | 1.6 | 4.8 | 0.00 | 0.99 | 0.00 | 87 | 1014.7 |
| 20260508063050 | 10 | 0 | 0.0 | 4.8 | 0.00 | 0.99 | 0.00 | 87 | 1014.9 |
| 20260508062538 | 10 | 20 | 1.6 | 4.8 | 0.00 | 0.99 | 0.00 | 87 | 1015.0 |
| 20260508062039 | 10 | 37 | 0.0 | 3.2 | 0.00 | 0.99 | 0.00 | 88 | 1015.0 |
| 20260508061550 | 10 | 90 | 1.6 | 3.2 | 0.00 | 0.99 | 0.00 | 88 | 1014.9 |
| 20260508061039 | 10 | 90 | 1.6 | 3.2 | 0.00 | 0.99 | 0.00 | 88 | 1014.9 |
| 20260508060538 | 10 | 0 | 0.0 | 3.2 | 0.00 | 0.99 | 0.00 | 87 | 1014.9 |
| 20260508060048 | 10 | 0 | 0.0 | 3.2 | 0.00 | 0.99 | 0.00 | 87 | 1015.0 |
| 20260508055540 | 10 | 86 | 0.0 | 3.2 | 0.00 | 1.24 | 0.00 | 88 | 1014.9 |
| 20260508055039 | 10 | 86 | 1.6 | 3.2 | 0.00 | 1.24 | 0.00 | 87 | 1014.9 |
| 20260508054556 | 10 | 86 | 1.6 | 3.2 | 0.00 | 1.24 | 0.00 | 87 | 1014.9 |
| 20260508054041 | 10 | 73 | 1.6 | 3.2 | 0.00 | 1.24 | 0.00 | 87 | 1014.9 |
| 20260508053540 | 11 | 66 | 1.6 | 4.8 | 0.00 | 1.24 | 0.00 | 87 | 1014.7 |
| 20260508053047 | 11 | 31 | 0.0 | 4.8 | 0.00 | 1.24 | 0.00 | 87 | 1014.7 |
| 20260508052539 | 11 | 14 | 1.6 | 6.4 | 0.00 | 1.24 | 0.00 | 87 | 1014.6 |
| 20260508052040 | 11 | 341 | 3.2 | 6.4 | 0.00 | 1.24 | 0.00 | 87 | 1014.7 |
| 20260508051546 | 11 | 315 | 3.2 | 9.7 | 0.00 | 1.24 | 0.00 | 87 | 1014.8 |
| 20260508051042 | 11 | 290 | 3.2 | 9.7 | 0.00 | 1.24 | 0.00 | 87 | 1014.8 |
| 20260508050541 | 11 | 309 | 3.2 | 6.4 | 0.00 | 1.24 | 0.00 | 87 | 1014.8 |
| 20260508050051 | 11 | 281 | 3.2 | 6.4 | 0.00 | 1.24 | 0.00 | 87 | 1014.9 |
| 20260508045543 | 11 | 283 | 3.2 | 6.4 | 0.00 | 1.65 | 0.00 | 87 | 1014.9 |
| 20260508045040 | 11 | 315 | 3.2 | 6.4 | 0.00 | 1.65 | 0.00 | 86 | 1014.7 |
| 20260508044544 | 11 | 336 | 3.2 | 6.4 | 0.00 | 1.65 | 0.00 | 86 | 1014.8 |
| 20260508044041 | 11 | 13 | 1.6 | 4.8 | 0.00 | 1.65 | 0.00 | 86 | 1014.8 |
| 20260508043540 | 11 | 0 | 0.0 | 3.2 | 0.00 | 1.65 | 0.00 | 87 | 1014.9 |
| 20260508043046 | 11 | 0 | 0.0 | 1.6 | 0.00 | 1.65 | 0.00 | 87 | 1014.5 |
| 20260508042540 | 11 | 0 | 0.0 | 1.6 | 0.00 | 1.65 | 0.00 | 87 | 1014.6 |
| 20260508042041 | 11 | 0 | 0.0 | 4.8 | 0.00 | 1.65 | 0.00 | 87 | 1014.6 |
| 20260508041548 | 11 | 0 | 0.0 | 4.8 | 0.00 | 1.65 | 0.00 | 87 | 1014.5 |
| 20260508041040 | 11 | 34 | 3.2 | 6.4 | 0.00 | 1.65 | 0.00 | 87 | 1014.4 |
| 20260508040540 | 11 | 33 | 3.2 | 6.4 | 0.00 | 1.65 | 0.00 | 87 | 1014.5 |
| 20260508040051 | 12 | 30 | 1.6 | 4.8 | 0.00 | 1.65 | 0.00 | 87 | 1014.4 |
| 20260508035539 | 12 | 42 | 1.6 | 3.2 | 0.00 | 1.85 | 1.65 | 87 | 1014.4 |
| 20260508035039 | 12 | 49 | 0.0 | 3.2 | 0.00 | 1.85 | 1.65 | 87 | 1014.4 |
| 20260508034548 | 12 | 49 | 0.0 | 3.2 | 0.00 | 1.85 | 1.65 | 87 | 1014.5 |
| 20260508034038 | 12 | 0 | 0.0 | 3.2 | 0.00 | 1.85 | 1.65 | 87 | 1014.4 |
| 20260508033538 | 12 | 49 | 0.0 | 3.2 | 0.00 | 1.85 | 1.65 | 87 | 1014.4 |
| 20260508033048 | 12 | 29 | 0.0 | 3.2 | 0.00 | 1.85 | 1.65 | 87 | 1014.3 |
| 20260508032539 | 12 | 29 | 0.0 | 3.2 | 0.00 | 1.85 | 1.65 | 87 | 1014.4 |
| 20260508032043 | 12 | 42 | 1.6 | 3.2 | 0.00 | 1.85 | 1.65 | 87 | 1014.4 |
| 20260508031546 | 12 | 0 | 0.0 | 0.0 | 0.00 | 1.85 | 1.65 | 87 | 1014.4 |
| 20260508031038 | 12 | 0 | 0.0 | 0.0 | 0.00 | 1.85 | 1.65 | 87 | 1014.5 |
| 20260508030538 | 12 | 0 | 0.0 | 1.6 | 0.00 | 1.85 | 1.65 | 87 | 1014.4 |
| 20260508030048 | 12 | 0 | 0.0 | 1.6 | 0.00 | 1.85 | 1.65 | 87 | 1014.4 |
| 20260508025539 | 12 | 44 | 0.0 | 1.6 | 0.00 | 1.85 | 1.65 | 87 | 1014.3 |
| 20260508025038 | 12 | 0 | 0.0 | 3.2 | 0.00 | 1.85 | 1.65 | 87 | 1014.2 |
| 20260508024554 | 12 | 44 | 0.0 | 3.2 | 0.00 | 1.85 | 1.65 | 87 | 1014.3 |
| 20260508024039 | 12 | 44 | 0.0 | 4.8 | 0.00 | 1.85 | 1.65 | 87 | 1014.2 |
| 20260508023538 | 12 | 352 | 1.6 | 4.8 | 0.00 | 1.85 | 1.65 | 87 | 1014.3 |
| 20260508023051 | 12 | 37 | 1.6 | 6.4 | 0.00 | 1.85 | 1.65 | 87 | 1014.3 |
| 20260508022538 | 12 | 38 | 1.6 | 6.4 | 0.00 | 1.85 | 1.65 | 87 | 1014.3 |
| 20260508022039 | 12 | 85 | 0.0 | 3.2 | 0.00 | 1.85 | 1.65 | 87 | 1014.2 |
| 20260508021552 | 12 | 0 | 1.6 | 3.2 | 0.00 | 1.85 | 1.65 | 87 | 1014.0 |
| 20260508021038 | 12 | 0 | 0.0 | 3.2 | 0.00 | 1.85 | 1.65 | 87 | 1014.2 |
| 20260508020540 | 12 | 85 | 1.6 | 3.2 | 0.00 | 1.85 | 1.65 | 87 | 1014.0 |
| 20260508020053 | 12 | 85 | 0.0 | 3.2 | 0.00 | 1.85 | 1.65 | 87 | 1014.1 |
| 20260508015538 | 12 | 85 | 0.0 | 3.2 | 0.00 | 1.88 | 1.65 | 87 | 1014.0 |
| 20260508015038 | 12 | 0 | 1.6 | 3.2 | 0.00 | 1.88 | 1.65 | 87 | 1013.9 |
| 20260508014552 | 12 | 90 | 0.0 | 3.2 | 0.00 | 1.88 | 1.65 | 87 | 1013.8 |
| 20260508014037 | 12 | 0 | 1.6 | 3.2 | 0.00 | 1.88 | 1.65 | 87 | 1013.8 |
| 20260508013541 | 12 | 46 | 1.6 | 3.2 | 0.00 | 1.88 | 1.65 | 87 | 1013.7 |
| 20260508013052 | 12 | 0 | 0.0 | 3.2 | 0.00 | 1.88 | 1.65 | 87 | 1013.8 |
| 20260508012538 | 13 | 61 | 0.0 | 3.2 | 0.00 | 1.88 | 1.65 | 87 | 1013.7 |
| 20260508012039 | 13 | 61 | 0.0 | 4.8 | 0.00 | 1.88 | 1.65 | 87 | 1013.6 |
| 20260508011552 | 13 | 58 | 1.6 | 4.8 | 0.00 | 1.88 | 1.65 | 87 | 1013.6 |
| 20260508011038 | 13 | 0 | 0.0 | 3.2 | 0.00 | 1.88 | 1.65 | 87 | 1013.7 |
| 20260508010538 | 13 | 61 | 1.6 | 3.2 | 0.00 | 1.88 | 1.65 | 87 | 1013.5 |
| 20260508010048 | 13 | 42 | 0.0 | 3.2 | 0.00 | 1.88 | 1.65 | 87 | 1013.5 |
| 20260508005540 | 13 | 0 | 0.0 | 3.2 | 0.00 | 1.96 | 1.65 | 86 | 1013.4 |
| 20260508005041 | 13 | 25 | 0.0 | 4.8 | 0.00 | 1.96 | 1.65 | 86 | 1013.4 |
| 20260508004554 | 13 | 31 | 1.6 | 4.8 | 0.00 | 1.96 | 1.65 | 86 | 1013.3 |
| 20260508004039 | 13 | 57 | 1.6 | 3.2 | 0.00 | 1.96 | 1.65 | 85 | 1013.4 |
| 20260508003540 | 14 | 0 | 0.0 | 1.6 | 0.00 | 1.96 | 1.65 | 85 | 1013.4 |
| 20260508003049 | 14 | 57 | 0.0 | 1.6 | 0.00 | 1.96 | 1.65 | 84 | 1013.1 |
| 20260508002542 | 14 | 0 | 0.0 | 3.2 | 0.00 | 1.96 | 1.65 | 84 | 1013.2 |
| 20260508002040 | 15 | 57 | 0.0 | 3.2 | 0.00 | 1.96 | 1.65 | 84 | 1013.0 |
| 20260508001547 | 15 | 53 | 0.0 | 3.2 | 0.00 | 1.96 | 1.65 | 83 | 1013.0 |
| 20260508001041 | 15 | 0 | 0.0 | 4.8 | 0.00 | 1.96 | 1.65 | 83 | 1013.0 |
| 20260508000542 | 15 | 0 | 1.6 | 4.8 | 0.00 | 1.96 | 1.65 | 82 | 1012.8 |
| 20260508000047 | 15 | 35 | 1.6 | 8.0 | 0.00 | 1.96 | 1.65 | 81 | 1012.8 |
| 20260507235541 | 15 | 35 | 1.6 | 9.7 | 0.00 | 2.36 | 1.65 | 81 | 1012.5 |
| 20260507235041 | 15 | 5 | 3.2 | 11.3 | 0.00 | 2.36 | 1.65 | 80 | 1012.6 |
| 20260507234551 | 15 | 332 | 4.8 | 11.3 | 0.00 | 2.36 | 1.65 | 81 | 1012.5 |
| 20260507234041 | 15 | 0 | 4.8 | 11.3 | 0.00 | 2.36 | 1.65 | 81 | 1012.6 |
| 20260507233545 | 15 | 26 | 4.8 | 11.3 | 0.00 | 2.36 | 1.65 | 80 | 1012.5 |
| 20260507233052 | 15 | 330 | 3.2 | 16.1 | 0.00 | 2.36 | 1.65 | 80 | 1012.7 |
| 20260507232541 | 15 | 323 | 4.8 | 16.1 | 0.00 | 2.36 | 1.65 | 80 | 1012.7 |
| 20260507232040 | 15 | 306 | 4.8 | 9.7 | 0.00 | 2.36 | 1.65 | 79 | 1012.6 |
| 20260507231555 | 16 | 24 | 3.2 | 9.7 | 0.00 | 2.36 | 1.65 | 79 | 1012.5 |
| 20260507231041 | 16 | 360 | 3.2 | 6.4 | 0.00 | 2.36 | 1.65 | 79 | 1012.5 |
| 20260507230542 | 16 | 337 | 3.2 | 8.0 | 0.00 | 2.36 | 1.65 | 79 | 1012.6 |
| 20260507225540 | 15 | 331 | 4.8 | 8.0 | 0.00 | 2.51 | 1.65 | 79 | 1012.6 |
| 20260507225044 | 15 | 319 | 4.8 | 8.0 | 0.00 | 2.51 | 1.65 | 79 | 1012.6 |
| 20260507224557 | 15 | 352 | 4.8 | 8.0 | 0.00 | 2.51 | 1.65 | 79 | 1012.4 |
| 20260507224045 | 15 | 276 | 3.2 | 16.1 | 0.00 | 2.51 | 1.65 | 80 | 1012.6 |
| 20260507223540 | 15 | 308 | 4.8 | 16.1 | 0.00 | 2.51 | 1.65 | 80 | 1012.7 |
| 20260507223050 | 15 | 320 | 8.0 | 16.1 | 0.00 | 2.51 | 1.65 | 79 | 1012.5 |
| 20260507222539 | 15 | 27 | 6.4 | 14.5 | 0.00 | 2.51 | 1.65 | 79 | 1012.6 |
| 20260507222040 | 15 | 5 | 6.4 | 19.3 | 0.00 | 2.51 | 1.65 | 80 | 1012.8 |
| 20260507221550 | 15 | 351 | 9.7 | 19.3 | 0.00 | 2.51 | 1.65 | 80 | 1012.7 |
| 20260507221041 | 15 | 332 | 8.0 | 17.7 | 0.00 | 2.51 | 1.65 | 80 | 1012.7 |
| 20260507220541 | 15 | 321 | 4.8 | 14.5 | 0.00 | 2.51 | 1.65 | 81 | 1012.6 |
| 20260507220056 | 15 | 9 | 4.8 | 19.3 | 0.00 | 2.51 | 1.65 | 81 | 1012.6 |
| 20260507215540 | 15 | 348 | 8.0 | 24.1 | 0.00 | 2.87 | 1.65 | 80 | 1012.6 |
| 20260507215039 | 15 | 325 | 11.3 | 24.1 | 0.00 | 2.87 | 1.65 | 80 | 1012.5 |
| 20260507214613 | 15 | 22 | 16.1 | 24.1 | 0.00 | 2.87 | 1.65 | 79 | 1012.5 |
| 20260507214039 | 16 | 24 | 4.8 | 16.1 | 0.00 | 2.87 | 1.65 | 78 | 1012.5 |
| 20260507213538 | 16 | 333 | 8.0 | 22.5 | 0.00 | 2.87 | 1.65 | 78 | 1012.2 |
| 20260507213104 | 16 | 321 | 8.0 | 22.5 | 0.00 | 2.87 | 1.65 | 78 | 1012.0 |
| 20260507212538 | 16 | 5 | 9.7 | 19.3 | 0.00 | 2.87 | 1.65 | 77 | 1012.2 |
| 20260507212040 | 16 | 17 | 9.7 | 20.9 | 0.00 | 2.87 | 1.65 | 78 | 1012.1 |
| 20260507211607 | 16 | 252 | 11.3 | 20.9 | 0.00 | 2.87 | 1.65 | 79 | 1012.1 |
| 20260507211037 | 16 | 360 | 6.4 | 20.9 | 0.00 | 2.87 | 1.65 | 80 | 1012.2 |
| 20260507210539 | 15 | 44 | 6.4 | 20.9 | 0.00 | 2.87 | 1.65 | 82 | 1012.0 |
| 20260507210054 | 15 | 40 | 11.3 | 20.9 | 0.00 | 2.87 | 1.65 | 81 | 1012.0 |
| 20260507205538 | 15 | 5 | 9.7 | 19.3 | 0.00 | 3.68 | 1.65 | 81 | 1011.8 |
| 20260507205039 | 15 | 28 | 8.0 | 16.1 | 0.00 | 3.68 | 1.65 | 82 | 1011.7 |
| 20260507204601 | 15 | 11 | 4.8 | 25.7 | 0.00 | 3.68 | 1.65 | 81 | 1011.7 |
| 20260507204042 | 15 | 351 | 12.9 | 25.7 | 0.00 | 3.68 | 1.65 | 82 | 1011.7 |
| 20260507203539 | 15 | 317 | 8.0 | 17.7 | 0.00 | 3.68 | 1.65 | 82 | 1011.8 |
| 20260507203051 | 15 | 22 | 9.7 | 20.9 | 0.00 | 3.68 | 1.65 | 83 | 1012.0 |
| 20260507202542 | 15 | 0 | 6.4 | 20.9 | 0.00 | 3.68 | 1.65 | 84 | 1011.9 |
| 20260507202040 | 15 | 327 | 9.7 | 19.3 | 0.00 | 3.68 | 1.65 | 85 | 1011.8 |
| 20260507201549 | 15 | 19 | 11.3 | 19.3 | 0.00 | 3.68 | 1.65 | 85 | 1011.8 |
| 20260507201038 | 15 | 360 | 12.9 | 20.9 | 0.00 | 3.68 | 1.65 | 84 | 1012.0 |
| 20260507200537 | 15 | 332 | 12.9 | 22.5 | 0.00 | 3.68 | 1.65 | 84 | 1011.8 |
| 20260507200050 | 15 | 339 | 9.7 | 22.5 | 0.00 | 3.68 | 1.65 | 84 | 1011.8 |
| 20260507195543 | 15 | 342 | 12.9 | 22.5 | 0.00 | 3.68 | 1.65 | 84 | 1011.8 |
| 20260507195038 | 15 | 307 | 3.2 | 16.1 | 0.00 | 3.68 | 1.65 | 85 | 1011.8 |
| 20260507194617 | 15 | 311 | 6.4 | 16.1 | 0.00 | 3.68 | 1.65 | 84 | 1011.8 |
| 20260507194038 | 15 | 360 | 8.0 | 16.1 | 0.00 | 3.68 | 1.65 | 84 | 1012.0 |
| 20260507193538 | 15 | 277 | 8.0 | 17.7 | 0.00 | 3.68 | 1.65 | 84 | 1012.2 |
| 20260507193047 | 15 | 5 | 8.0 | 17.7 | 0.00 | 3.68 | 1.65 | 84 | 1012.1 |
| 20260507192539 | 15 | 297 | 9.7 | 19.3 | 0.00 | 3.68 | 1.65 | 84 | 1012.0 |
| 20260507192038 | 15 | 323 | 6.4 | 19.3 | 0.00 | 3.68 | 1.65 | 84 | 1011.9 |
| 20260507191555 | 15 | 304 | 8.0 | 19.3 | 0.00 | 3.68 | 1.65 | 85 | 1011.8 |
| 20260507191038 | 15 | 234 | 3.2 | 9.7 | 0.00 | 3.68 | 1.65 | 86 | 1011.9 |
| 20260507190538 | 15 | 57 | 4.8 | 12.9 | 0.00 | 3.68 | 1.65 | 86 | 1011.8 |
| 20260507190052 | 15 | 345 | 3.2 | 12.9 | 0.00 | 3.68 | 1.65 | 86 | 1011.8 |
| 20260507185538 | 14 | 350 | 6.4 | 12.9 | 0.00 | 3.68 | 1.65 | 86 | 1011.8 |
| 20260507185042 | 14 | 36 | 8.0 | 12.9 | 0.00 | 3.68 | 1.65 | 86 | 1011.8 |
| 20260507184558 | 14 | 329 | 6.4 | 11.3 | 0.00 | 3.68 | 1.65 | 86 | 1011.8 |
| 20260507184039 | 14 | 360 | 4.8 | 12.9 | 0.00 | 3.68 | 1.65 | 86 | 1011.9 |
| 20260507183540 | 14 | 9 | 3.2 | 14.5 | 0.00 | 3.68 | 1.65 | 87 | 1012.1 |
| 20260507183052 | 14 | 16 | 6.4 | 14.5 | 0.00 | 3.68 | 1.65 | 87 | 1012.2 |